Flag for Kosovo Weather past 2 weeks in Uroševac, Kosovo

Now
48 °F

Clear.


Feels Like: 48 °F
Forecast: 48 / 65 °F
Wind: No wind

Location: Skopje-Petrovec

Current Time: May 26, 2015 at 4:17:27 AM

Latest Report: May 26, 2015 at 3:30 AM


Visibility: 10 mi

Pressure: 29.83 "Hg

Humidity: 94%

Dew point: 46 °F

Location of UroševacLocation

Historic Weather in Uroševac — Graph

°F

Uroševac temperature yesterday

Maximum temperature yesterday: 73 °F (at 2:00 PM)
Minimum temperature yesterday: 54 °F (at 10:30 PM)
Average temperature yesterday: 62 °F

Past Weeks' High & Low Weather Summary

 TemperatureHumidityPressure
High84 °F (May 14, 5:00 PM)100% (May 13, 4:30 AM)30.30 "Hg (May 13, 4:30 AM)
Low45 °F (May 13, 4:30 AM)28% (May 13, 3:00 PM)29.77 "Hg (May 14, 4:30 PM)
Average67 °F65%29.96 "Hg
* Reported May 11 3:00 AM — May 26 3:00 AM, Uroševac, Weather by CustomWeather, © 2015

Note: Actual official high and low records may vary slightly from our data, if they occured in-between our weather recording intervals... More about our weather records

Advertising

Uroševac weather history for previous 24 hours

 ConditionsComfort  
Time TempWeatherWind HumidityBarometerVisibility
3:00 AM
Tue, May 26
50 °FClear.2 mph94%29.83 "Hg10 mi
2:30 AM50 °FClear.No wind94%29.83 "Hg10 mi
2:00 AM50 °FClear.1 mph94%29.83 "Hg10 mi
1:30 AM50 °FClear.No wind94%29.83 "Hg10 mi
1:00 AM52 °FClear.1 mph94%29.83 "Hg10 mi
12:30 AM52 °FClear.2 mph94%29.83 "Hg10 mi
12:00 AM52 °FClear.1 mph94%29.83 "Hg10 mi
11:30 PM
Mon, May 25
54 °FClear.No wind88%29.86 "Hg10 mi
11:00 PM54 °FClear.2 mph94%29.83 "Hg10 mi
10:30 PM54 °FClear.5 mph94%29.86 "Hg10 mi
10:00 PM55 °FClear.2 mph88%29.83 "Hg10 mi
9:30 PM57 °FPassing clouds.2 mph82%29.86 "HgN/A
9:00 PM57 °FPassing clouds.3 mph82%29.83 "HgN/A
8:30 PM61 °FPassing clouds.3 mph72%29.83 "HgN/A
8:00 PM61 °FPassing clouds.7 mph72%29.83 "HgN/A
7:30 PM63 °FPassing clouds.10 mph68%29.83 "HgN/A
7:00 PM63 °FPassing clouds.15 mph68%29.80 "HgN/A
6:30 PM63 °FScattered clouds.13 mph77%29.80 "HgN/A
6:00 PM63 °FScattered clouds.10 mph77%29.80 "HgN/A
5:30 PM68 °FScattered clouds.7 mph56%29.80 "HgN/A
5:00 PM66 °FThunderstorms. Scattered clouds.3 mph60%29.80 "HgN/A
4:30 PM72 °FThunderstorms. Scattered clouds.5 mph50%29.80 "HgN/A
4:00 PM72 °FScattered clouds.5 mph44%29.80 "HgN/A
3:30 PM73 °FScattered clouds.3 mph38%29.80 "HgN/A
2:30 PM73 °FScattered clouds.5 mph41%29.80 "HgN/A
2:00 PM73 °FScattered clouds.5 mph44%29.83 "HgN/A
1:30 PM70 °FScattered clouds.5 mph50%29.83 "HgN/A
1:00 PM72 °FScattered clouds.2 mph47%29.83 "HgN/A
12:30 PM70 °FScattered clouds.2 mph50%29.83 "HgN/A
12:00 PM70 °FScattered clouds.2 mph46%29.86 "HgN/A
11:30 AM70 °FScattered clouds.2 mph53%29.86 "HgN/A
11:00 AM68 °FScattered clouds.2 mph56%29.86 "HgN/A
10:30 AM66 °FScattered clouds.2 mph64%29.86 "HgN/A
10:00 AM64 °FScattered clouds.3 mph68%29.86 "HgN/A
9:30 AM64 °FScattered clouds.2 mph68%29.86 "HgN/A
9:00 AM63 °FScattered clouds.2 mph73%29.86 "HgN/A
8:30 AM59 °FScattered clouds.5 mph82%29.86 "HgN/A
8:00 AM57 °FBroken clouds.3 mph88%29.89 "HgN/A
7:30 AM57 °FBroken clouds.No wind82%29.89 "HgN/A
7:00 AM57 °FRain. Broken clouds.No wind82%29.89 "HgN/A
6:00 AM59 °FRain. Mostly cloudy.1 mph94%29.86 "Hg5 mi
5:30 AM57 °FDrizzle. Mostly cloudy.No wind100%29.86 "Hg5 mi
5:00 AM57 °FRain. Overcast.2 mph100%29.86 "Hg4 mi
4:30 AM57 °FRain. Mostly cloudy.No wind100%29.86 "Hg4 mi
4:00 AM57 °FPartly cloudy.No wind100%29.83 "HgN/A
Weather by CustomWeather, © 2015

See weather overviewHow to use our weather pages